Location: ???????
(55.3754°N, 39.3545°E)
Time: 07:27:27
(UTC+00:00)

Cosmos 1356 Rocket - Pass Details

Date: 14 April 2026
Orbit: 514 x 556 km, 81.1° (Epoch: 13 May)

Event Time Altitude Azimuth Distance (km) Brightness Sun altitude
Exits shadow 20:15:34 74° 39° (NE) 582 3.4 -23.5°
Drops below altitude 10° 20:19:19 10° 16° (NNE) 1,838 6.7 -23.6°
Sets 20:21:29 0° 15° (NNE) 2,730 7.8 -23.7°
